Terminal Aerodrome Forecast
Issued by NWS Atlanta, GA

Home | Current Version | Previous Version | Text Only | Print | Product List | Glossary On
Versions: 1 2 3 4 5 6 7 8 9 10 11 12 13 14 15 16 17 18 19 20 21 22 23 24 25 26 27 28 29 30 31 32 33 34 35 36 37 38
536
FTUS42 KFFC 011136
TAFATL
TAF
KATL 011136Z 0112/0218 21006KT 4SM BR FEW004 FEW045
      TEMPO 0112/0113 BKN005
     FM011300 24007KT P6SM BKN020
     FM011600 23009KT P6SM VCSH BKN035
     FM011800 23010KT 4SM -TSRA BKN035CB
     FM012100 23008KT P6SM VCSH OVC040
     FM020200 24005KT P6SM SCT060 BKN250
     FM021200 22006KT P6SM SCT030 BKN160=

USA.gov is the U.S. government's official web portal to all federal, state and local government web resources and services.